Showing default

LEMUR 2 TINYKEV, 43883

Orbit data source: Space-Track

LEMUR 2 TINYKEV, 43883 is a payload satellite owned by Spire/Lux (US) in LEO that was launched on Thu, 27 Dec 2018 UTC via a SOYUZ-2-1A launch vehicle from the Vostochny Cosmodrome (VOSTO). Payloads include a variety of satellites, spacecraft, and rockets equipped with specific instruments for various scientific and technological missions. These include communications satellites like Starlink; space stations such as the ISS; scientific satellites like the Hubble; Earth observation satellites from companies like Planet Labs, Umbra, and HawkEye 360; GPS; miniature CubeSats for education and research; and military/defense satellites.

Not visible in the next 10 days
LEMUR 2 TINYKEV details
Identifier
43883, 2018-111H
Orbit
LEO
Last TLE update7 hours ago
Origin
Flag of USSpire/Lux (US)
ManufacturerSpire/Glasgow
MissionOperational Commercial Com/MetRO
Bus & MotorCUBESAT 3U, Unknown motor
Mass4.6 kg wet, 4.6 kg dry
Launch date (UTC)
2018-12-27 (6 years ago)
Launch vehicle
SOYUZ-2-1A
Launch site
Vostochny Cosmodrome (VOSTO)
Object type
Payload
Rocket body
Debris
Shape & HBRBox + 2 Pan, 0.7 m
Radar Cross Section0.124 m², Small (<0.1 m²)

Expand to show TLE details & history

TLE from 7 hours ago
0 LEMUR 2 TINYKEV
1 43883U 18111H   24337.02739276  .00333687  00000-0  33397-2 0  9990
2 43883  97.5792 255.6662 0013904  96.4893 263.7949 15.64403935323676
Epoch: 2024-12-02T00:39Z
Definitive object data (Epoch: 2024-12-02T00:39:26.734Z)
Latitude-0.00003°
Longitude174.44767°
Altitude379.127 km
Speed7.682 km/s
True Right ascension17h 02m 39s
True Declination0° 00' 00"
Sunlit
Object was in daylight at TLE epoch
Visualization TLE readout
Latitude36.48478°
Longitude0.36529°
Altitude373.221 km
Speed7.693 km/s
Apparent Right ascension07h 33m 25s
Apparent Declination-6° 51' 03"
Sunlit
Object is in full shadow
Visualization observer readout
Local Sidereal Time05:10:27
Azimuth136.381° SSE
Elevation32.79°
Doppler factor1
Orbital elements
Apogee altitude381.253 km
Perigee altitude362.483 km
Semi-major axis6,750.005 km
Eccentricity0.0013904
Inclination97.5792°
RAAN255.6662°
Arg. of periapsis96.4893°
True anomaly263.63654°
Mean anomaly263.7949°
Eccentric anomaly263.71571°
Mean motion3.9137 °/min
BSTAR0.0033397
Orbital period91.98 mins
Loading maneuver chart data...
Loading historical data...
Loading historical data...
Loading historical data...
Loading historical data...
Loading historical data...
Loading historical data...
Loading historical data...

LEMUR 2 TINYKEV Visibility forecast

Observer location: undefined°, undefined

LEMUR 2 TINYKEV is not visible in the next 10 days
Span
Click to sort rows by Start time (UTC) header in descending order
Start Az.
Max El. time (UTC)
Max El. Az.
Max El.
End time (UTC)
End Az.
|